[[{"header":{"parameterUnit":"m.s-1","parameterCategory":1,"la1":30.2991,"la2":30.254,"lo1":-89.0895,"lo2":-89.0444,"dy":0.0017,"dx":0.0017,"nx":28,"ny":28,"refTime":"2024-06-21T09:00:00:Z","depth":0,"parameterNumber":2,"parameterNumberName":"U-component_of_WINDS"},"data":[0,0,0,0,0,0,0,0,0,0,0,0,0,0,0,0,0,0,0,0,0,0,0,0,0,0,0,0,0,0,0,0,0,0,0,0,0,0,0,0,0,0,0,0,0,0,0,0,0,0,0,0,0,0,0,0,0,0,-1.3762,-1.3761,0,-1.3673,-1.3672,-1.3671,-1.3604,-1.3604,-1.3603,-1.3602,-1.3511,-1.3509,-1.3508,0,0,0,0,0,0,0,0,0,0,0,0,0,-1.3874,-1.3873,-1.3762,-1.3761,-1.3759,-1.3673,-1.3672,-1.3671,-1.3604,-1.3604,-1.3603,-1.3602,-1.3512,-1.351,-1.3507,0,0,0,0,0,0,0,0,0,0,0,0,0,-1.381,-1.3872,-1.3762,-1.3716,-1.3711,-1.3673,-1.3672,-1.367,-1.3605,-1.3604,-1.3603,-1.3602,-1.3513,-1.351,-1.3507,-1.3508,0,0,-1.3498,-1.3497,0,0,0,0,0,0,0,0,-1.3813,-1.3806,-1.3724,-1.3719,-1.3713,-1.3649,-1.3678,-1.3616,-1.3605,-1.3645,-1.3602,-1.3601,-1.3558,-1.3551,-1.3536,-1.3504,-1.35,-1.3498,-1.3497,-1.3495,-1.3495,0,0,0,0,0,0,0,-1.3818,-1.3809,-1.3726,-1.3723,-1.3716,-1.37,-1.369,-1.3666,-1.3607,-1.3641,-1.3636,-1.3627,-1.3555,-1.3539,-1.3534,-1.3498,-1.3498,-1.3496,-1.3494,-1.3493,-1.3463,-1.3464,0,0,0,0,0,0,-1.383,-1.3813,-1.3729,-1.3724,-1.3762,-1.3699,-1.3687,-1.367,-1.3607,-1.3597,-1.3628,-1.3624,-1.3545,-1.3537,-1.353,-1.3527,-1.3495,-1.3493,-1.3491,-1.3462,-1.3463,-1.3464,0,0,0,0,0,0,-1.3832,-1.3823,-1.3733,-1.3767,-1.3754,-1.3698,-1.3679,-1.3669,-1.3654,-1.3597,-1.3586,-1.3623,-1.3544,-1.3534,-1.3514,-1.3523,-1.3491,-1.3489,-1.3461,-1.3463,-1.3464,-1.3521,0,0,0,0,0,0,-1.3836,-1.3824,-1.3823,-1.3768,-1.3753,-1.3718,-1.368,-1.3668,-1.3649,-1.3643,-1.359,-1.358,-1.3542,-1.3519,-1.3512,-1.3519,-1.3487,-1.346,-1.3462,-1.3463,-1.3518,-1.3525,-1.353,0,0,0,0,0,-1.384,-1.3843,-1.3823,-1.3814,-1.3751,-1.3719,-1.371,-1.3667,-1.365,-1.3649,-1.3613,-1.3581,-1.3524,-1.3517,-1.3508,-1.3515,-1.3459,-1.3461,-1.3463,-1.3516,-1.3523,-1.353,0,0,0,0,0,0,-1.39,-1.3834,-1.3812,-1.3797,-1.3764,-1.3707,-1.3704,-1.3676,-1.3647,-1.3643,-1.359,-1.3579,-1.3565,-1.3538,-1.3532,-1.3513,-1.3488,-1.3488,-1.3531,-1.3537,-1.3543,-1.3549,-1.3484,0,0,0,0,0,-1.3911,-1.3891,-1.3835,-1.3827,-1.3811,-1.3761,-1.3746,-1.3716,-1.3679,-1.3664,-1.3627,-1.3593,-1.3567,-1.3551,-1.3524,-1.3515,-1.3503,-1.3516,-1.3522,-1.3526,-1.3527,-1.3521,-1.3526,-1.3471,-1.3471,-1.3471,0,0,-1.3934,-1.3896,-1.3886,-1.3838,-1.3808,-1.3789,-1.375,-1.373,-1.3715,-1.3661,-1.364,-1.3612,-1.3571,-1.3556,-1.3548,-1.3534,-1.354,-1.3529,-1.3533,-1.3531,-1.3523,-1.3529,-1.3533,-1.3472,-1.3472,-1.3472,0,0,-1.3966,-1.3936,-1.3925,-1.3898,-1.3855,-1.3822,-1.382,-1.3768,-1.3747,-1.3726,-1.3686,-1.3667,-1.3624,-1.3596,-1.3577,-1.3602,-1.3572,-1.3595,-1.3624,-1.3619,-1.3623,-1.3627,-1.3635,-1.3639,-1.3596,-1.3596,-1.3596,0,-1.4,-1.3968,-1.3924,-1.3907,-1.3887,-1.384,-1.383,-1.3805,-1.3755,-1.3743,-1.3728,-1.3674,-1.3642,-1.3621,-1.3628,-1.3614,-1.361,-1.3599,-1.3626,-1.3629,-1.3632,-1.364,-1.3643,-1.3599,-1.3599,-1.3598,-1.3598,0,-1.4012,-1.3991,-1.3989,-1.3943,-1.3923,-1.3909,-1.3864,-1.3849,-1.3822,-1.3791,-1.3771,-1.3732,-1.3697,-1.369,-1.3663,-1.3666,-1.3659,-1.3636,-1.3608,-1.3641,-1.3647,-1.365,-1.3603,-1.3602,-1.3601,-1.3601,0,0,-1.4076,-1.4008,-1.4008,-1.3987,-1.3937,-1.392,-1.3906,-1.3872,-1.3861,-1.3829,-1.3816,-1.3782,-1.3761,-1.3739,-1.3709,-1.3704,-1.3727,-1.3682,-1.368,-1.3691,-1.3728,-1.3745,-1.3749,-1.3708,-1.3708,-1.3709,-1.3732,0,-1.4099,-1.407,-1.4031,-1.4015,-1.3995,-1.3951,-1.3939,-1.3908,-1.3879,-1.3859,-1.3828,-1.3804,-1.3779,-1.3765,-1.3759,-1.3726,-1.3734,-1.3724,-1.3694,-1.3694,-1.3705,-1.3752,-1.3769,-1.3792,-1.3734,-1.3734,-1.3735,0,-1.4121,-1.4093,-1.4075,-1.4029,-1.4019,-1.4008,-1.3975,-1.3957,-1.3921,-1.3901,-1.3878,-1.3846,-1.3829,-1.3807,-1.3783,-1.3777,-1.3764,-1.3746,-1.3746,-1.374,-1.3715,-1.3747,-1.3799,-1.3802,-1.3738,-1.3738,-1.3738,0,-1.4169,-1.4127,-1.4111,-1.4094,-1.404,-1.4034,-1.4011,-1.3974,-1.3957,-1.3929,-1.3918,-1.3888,-1.3872,-1.385,-1.3811,-1.3798,-1.3792,-1.3766,-1.3775,-1.3776,-1.3773,-1.3773,-1.3823,-1.3767,-1.3767,-1.3767,-1.3767,0,-1.4198,-1.4189,-1.4131,-1.4121,-1.411,-1.4067,-1.4057,-1.403,-1.3999,-1.3983,-1.3944,-1.3931,-1.3881,-1.3862,-1.3832,-1.3817,-1.3811,-1.3794,-1.3786,-1.3796,-1.3798,-1.3785,-1.3782,-1.3768,-1.3768,-1.3768,-1.3767,0,-1.4248,-1.421,-1.4189,-1.414,-1.4128,-1.4122,-1.408,-1.4069,-1.404,-1.4021,-1.4014,-1.3968,-1.3944,-1.3904,-1.3868,-1.3848,-1.3839,-1.3826,-1.3851,-1.3845,-1.3856,-1.3855,-1.3897,-1.3901,-1.3845,-1.3845,-1.3846,0,-1.4268,-1.426,-1.4211,-1.4198,-1.4177,-1.4157,-1.414,-1.4098,-1.4081,-1.4042,-1.4036,-1.4009,-1.3985,-1.3949,-1.3912,-1.3885,-1.387,-1.3887,-1.3866,-1.3877,-1.387,-1.387,-1.3869,-1.3891,-1.3892,-1.3893,-1.3893,0,-1.4308,-1.429,-1.4267,-1.4238,-1.4219,-1.4194,-1.4167,-1.4159,-1.4111,-1.4095,-1.407,-1.4052,-1.4016,-1.399,-1.3958,-1.3935,-1.3906,-1.3901,-1.3901,-1.3911,-1.3926,-1.3918,-1.3863,-1.3899,-1.3899,-1.3898,-1.3898,-1.3898,-1.4343,-1.4334,-1.4299,-1.4275,-1.4251,-1.4227,-1.4215,-1.4185,-1.4163,-1.4131,-1.4108,-1.4085,-1.4052,-1.4006,-1.3985,-1.3967,-1.3954,-1.3955,-1.3954,-1.3955,-1.3959,-1.3931,-1.3961,-1.3961,-1.3961,-1.396,-1.396,0,-1.438,-1.4356,-1.4335,-1.4299,-1.428,-1.4257,-1.4226,-1.4213,-1.4193,-1.4164,-1.4142,-1.4114,-1.409,-1.4053,-1.4025,-1.4018,-1.4004,-1.4012,-1.4011,-1.4007,-1.3972,-1.3974,-1.4023,-1.4023,-1.4023,-1.4023,-1.4023,-1.4023,-1.4397,-1.4382,-1.436,-1.4332,-1.4308,-1.4285,-1.427,-1.4248,-1.4225,-1.4196,-1.4176,-1.4152,-1.4121,-1.4091,-1.4068,-1.4057,-1.4049,-1.4061,-1.4046,-1.4015,-1.4009,-1.4003,-1.4005,-1.4059,-1.4059,-1.4082,-1.4082,-1.4082]},{"header":{"parameterUnit":"m.s-1","parameterCategory":1,"la1":30.2991,"la2":30.254,"lo1":-89.0895,"lo2":-89.0444,"dy":0.0017,"dx":0.0017,"nx":28,"ny":28,"refTime":"2024-06-21T09:00:00:Z","depth":0,"parameterNumber":3,"parameterNumberName":"V-component_of_WINDS"},"data":[0,0,0,0,0,0,0,0,0,0,0,0,0,0,0,0,0,0,0,0,0,0,0,0,0,0,0,0,0,0,0,0,0,0,0,0,0,0,0,0,0,0,0,0,0,0,0,0,0,0,0,0,0,0,0,0,0,0,2.845,2.845,0,2.8454,2.8454,2.8454,2.8508,2.851,2.8511,2.8513,2.851,2.8509,2.8507,0,0,0,0,0,0,0,0,0,0,0,0,0,2.8487,2.8486,2.845,2.845,2.8451,2.8454,2.8454,2.8454,2.8508,2.851,2.8512,2.8513,2.8511,2.8509,2.8507,0,0,0,0,0,0,0,0,0,0,0,0,0,2.8479,2.8486,2.845,2.8478,2.8481,2.8454,2.8454,2.8454,2.8508,2.851,2.8512,2.8514,2.8511,2.8509,2.8507,2.8452,0,0,2.8501,2.85,0,0,0,0,0,0,0,0,2.8479,2.8477,2.8474,2.8476,2.8479,2.8483,2.8466,2.8453,2.8507,2.8497,2.8513,2.8515,2.8499,2.8498,2.8494,2.8452,2.8452,2.8501,2.8499,2.8498,2.8498,0,0,0,0,0,0,0,2.848,2.8477,2.8452,2.8474,2.8477,2.8489,2.849,2.8464,2.8486,2.8498,2.8502,2.8502,2.8501,2.8496,2.8494,2.8451,2.8501,2.8499,2.8497,2.8497,2.8365,2.8362,0,0,0,0,0,0,2.8477,2.8478,2.8451,2.8452,2.8485,2.8487,2.8488,2.8479,2.8487,2.849,2.8501,2.8505,2.8498,2.8497,2.8494,2.843,2.8498,2.8496,2.8495,2.8367,2.8364,2.8362,0,0,0,0,0,0,2.8478,2.8474,2.8451,2.8466,2.8464,2.8484,2.8474,2.8478,2.8474,2.8488,2.8492,2.8492,2.85,2.8497,2.8462,2.8431,2.8496,2.8494,2.837,2.8366,2.8363,2.8302,0,0,0,0,0,0,2.8478,2.8474,2.8454,2.8465,2.8463,2.8421,2.8472,2.8477,2.847,2.8476,2.8481,2.8483,2.8501,2.8465,2.846,2.8429,2.8492,2.8372,2.8368,2.8364,2.8306,2.8296,2.8288,0,0,0,0,0,2.848,2.8435,2.8453,2.8449,2.8439,2.8419,2.8417,2.844,2.8468,2.8447,2.8457,2.8483,2.8435,2.8461,2.8456,2.8424,2.8374,2.8369,2.8364,2.8311,2.8298,2.8288,0,0,0,0,0,0,2.8418,2.8437,2.8457,2.8415,2.8415,2.8428,2.8403,2.8426,2.8417,2.8423,2.845,2.845,2.8411,2.8414,2.8443,2.8371,2.841,2.8403,2.8371,2.8359,2.835,2.835,2.849,0,0,0,0,0,2.84,2.8384,2.8401,2.8362,2.8362,2.8382,2.8374,2.8392,2.8392,2.8392,2.8399,2.8397,2.8382,2.8371,2.8357,2.8308,2.8309,2.8283,2.8274,2.8266,2.826,2.8234,2.8223,2.8345,2.8345,2.8345,0,0,2.8362,2.837,2.8358,2.835,2.8352,2.8334,2.8382,2.8359,2.8346,2.8388,2.8356,2.8361,2.8361,2.8319,2.83,2.832,2.8227,2.826,2.8253,2.8251,2.8228,2.8216,2.8206,2.8342,2.8342,2.8343,0,0,2.8283,2.8288,2.8257,2.8259,2.8262,2.8276,2.8269,2.8278,2.8284,2.8253,2.8285,2.8268,2.8241,2.8239,2.8235,2.8157,2.8181,2.8151,2.8103,2.8077,2.8068,2.8059,2.8031,2.8021,2.8145,2.8145,2.8145,0,2.8234,2.8209,2.8237,2.8214,2.8209,2.8249,2.8217,2.8217,2.8215,2.821,2.8233,2.82,2.8203,2.8161,2.8142,2.8137,2.8129,2.815,2.8067,2.8059,2.8051,2.8025,2.8014,2.8142,2.8142,2.8142,2.8143,0,2.8149,2.8131,2.8105,2.8105,2.8098,2.807,2.8092,2.8081,2.81,2.8112,2.8079,2.8084,2.8072,2.8064,2.8081,2.8025,2.8037,2.8063,2.8102,2.8036,2.8011,2.8001,2.8137,2.8138,2.8139,2.814,0,0,2.803,2.8047,2.8037,2.8038,2.8045,2.8031,2.8005,2.7996,2.7985,2.7983,2.7961,2.7938,2.7963,2.7958,2.7975,2.7953,2.7891,2.7982,2.7982,2.7964,2.7828,2.7809,2.7796,2.7907,2.7905,2.7904,2.7829,0,2.7954,2.7912,2.7937,2.7891,2.7874,2.7913,2.789,2.7891,2.7902,2.7888,2.7899,2.7882,2.7916,2.7913,2.7893,2.7903,2.7864,2.7908,2.7886,2.7885,2.7884,2.7784,2.7762,2.7691,2.7819,2.7818,2.7816,0,2.7859,2.7855,2.7808,2.7819,2.7813,2.7792,2.7787,2.7774,2.7776,2.7785,2.778,2.7803,2.7777,2.7817,2.7781,2.7811,2.7803,2.7806,2.7804,2.7802,2.7846,2.7779,2.7669,2.7658,2.7802,2.7803,2.7804,0,2.7777,2.7759,2.7729,2.7728,2.7741,2.7725,2.773,2.7734,2.7727,2.7722,2.7717,2.7708,2.7702,2.7694,2.7714,2.7741,2.7675,2.7716,2.7681,2.768,2.7664,2.7665,2.7551,2.766,2.766,2.7661,2.7661,0,2.7689,2.7658,2.7692,2.7674,2.764,2.7669,2.7635,2.7643,2.7647,2.7629,2.7662,2.7644,2.7672,2.7657,2.7672,2.764,2.7637,2.7643,2.7647,2.764,2.7639,2.7634,2.7639,2.7658,2.7658,2.7659,2.7659,0,2.7591,2.7613,2.7582,2.7598,2.7601,2.7576,2.7588,2.7571,2.7584,2.7561,2.7558,2.7577,2.7562,2.7581,2.7566,2.7576,2.7533,2.7545,2.7533,2.7536,2.7499,2.7502,2.7378,2.7363,2.7482,2.7481,2.748,0,2.7533,2.7511,2.7525,2.7516,2.7519,2.7505,2.7499,2.7527,2.7519,2.752,2.7502,2.749,2.7481,2.7454,2.7466,2.7455,2.7466,2.7424,2.7464,2.7458,2.7465,2.7466,2.7464,2.7415,2.7413,2.7412,2.7411,0,2.7428,2.7441,2.7432,2.7426,2.7419,2.7416,2.7414,2.7405,2.7434,2.7423,2.7409,2.7402,2.7388,2.7375,2.7368,2.7371,2.7395,2.7399,2.739,2.7382,2.7376,2.7378,2.7509,2.7401,2.7402,2.7403,2.7403,2.7404,2.7348,2.7331,2.7338,2.7327,2.733,2.7328,2.7313,2.7326,2.7314,2.7307,2.7323,2.7304,2.7307,2.73,2.7301,2.7285,2.7304,2.7291,2.7287,2.7284,2.7278,2.7379,2.7284,2.7284,2.7285,2.7285,2.7285,0,2.7245,2.7252,2.7242,2.7241,2.7232,2.7258,2.7259,2.7249,2.7233,2.7235,2.7226,2.7209,2.7197,2.7209,2.7199,2.7184,2.7195,2.718,2.7181,2.7182,2.7263,2.7271,2.7172,2.7172,2.7172,2.7172,2.7172,2.7172,2.719,2.7162,2.7175,2.7148,2.7155,2.7139,2.7137,2.7135,2.7137,2.7118,2.7108,2.7117,2.7123,2.7113,2.7103,2.7107,2.7101,2.7082,2.709,2.7165,2.7176,2.7186,2.7195,2.7081,2.7081,2.701,2.7009,2.7009]}]]